THY9704 LTCI-LTFM

Flight info

Callsign THY9704
Flight time N/A
Altitude 32000
Route BEYAZ UT368 BAYIR UT888 SIV UL615 TIMOP UT97 LETBU/N0429F280 T97 KANQO
Aircraft MD82/M-SDFGIRWY/C

Departure

Time 2026-05-04 16:46
Airport Van Ferit Melen Airport (LTCI)

Arrival

Time N/A
Airport İstanbul Airport (LTFM)
Time Latitude Longitude Altitude Speed Heading
2026-05-04 16:08 38.46936 43.33705 5479 ft 0 kts 128°
2026-05-04 16:13 38.46937 43.33705 5479 ft 0 kts 128°
2026-05-04 16:28 38.46954 43.33660 5482 ft 3 kts 81°
2026-05-04 16:29 38.46918 43.33606 5485 ft 1 kts 38°
2026-05-04 16:36 38.46921 43.33609 5486 ft 1 kts 37°
2026-05-04 16:37 38.46963 43.33650 5484 ft 4 kts 39°
2026-05-04 16:37 38.46984 43.33673 5482 ft 6 kts 39°
2026-05-04 16:37 38.47099 43.33775 5481 ft 10 kts
2026-05-04 16:38 38.47155 43.33721 5484 ft 2 kts 310°
2026-05-04 16:39 38.47185 43.33674 5485 ft 2 kts 309°
2026-05-04 16:39 38.47239 43.33649 5484 ft 11 kts 10°
2026-05-04 16:40 38.47397 43.33791 5484 ft 13 kts 39°
2026-05-04 16:40 38.47530 43.33928 5483 ft 11 kts 39°
2026-05-04 16:41 38.47629 43.34024 5486 ft 10 kts 37°
2026-05-04 16:41 38.47804 43.34160 5485 ft 2 kts 123°
2026-05-04 16:42 38.47755 43.34141 5486 ft 6 kts 215°
2026-05-04 16:43 38.47700 43.34091 5485 ft 3 kts 216°
2026-05-04 16:43 38.47683 43.34075 5485 ft 0 kts 216°
2026-05-04 16:44 38.47385 43.33782 5483 ft 69 kts 217°
2026-05-04 16:45 38.46156 43.32579 5450 ft 149 kts 217°
2026-05-04 16:46 38.43469 43.29726 6048 ft 178 kts 226°
2026-05-04 16:46 38.42318 43.26945 6633 ft 197 kts 258°
2026-05-04 16:47 38.43105 43.23441 5425 ft 0 kts 310°